STARLINK-33971, 63932

Orbit data source: Space-Track

STARLINK-33971, 63932 is a payload satellite owned by SpaceX/Seattle (US) in LEO that was launched on Tue, 13 May 2025 UTC via an FALCON 9 launch vehicle from the Air Force Western Test Range (AFWTR). Payload-class satellites include a variety of spacecraft equipped with specific instruments for various scientific and technological missions. These include communications satellites like Starlink; space stations such as the ISS; scientific satellites like the Hubble; Earth observation satellites from companies like Planet Labs, Umbra, and HawkEye 360; GPS; miniature CubeSats for education and research; and military/defense satellites.

Loading next visibility...
Identifier
63932, 2025-098G
Orbit
LEO
Country
Flag of USUS
Related business
Manufacturer
SpaceX/Seattle
Mission
Operational Commercial Communications
Bus & Motor
STARLINK V2MO, Unknown motor
Mass
575 kg wet, ~530 kg dry
Launch date (UTC)
2025-05-13 (1 year ago)
Launch vehicle
FALCON 9
Launch site
Air Force Western Test Range (AFWTR)
Object type
Payload
Rocket body
Debris
Shape & HBR
Box + 2 Pan, 17.7 m
Radar Cross Section
36.964 m², Large (>1 m²)

Expand to show TLE details & history
Last TLE update: 23 hours ago

TLE from 23 hours ago
0 STARLINK-33971
1 63932U 25098G   26170.99852435  .00003257  00000-0  28061-3 0  9995
2 63932  70.0021  16.6514 0002888 269.0879  90.9949 14.98336654 61898
Epoch: 2026-06-19T23:57Z
TLE epoch observation values (Epoch: 2026-06-19T23:57:52.503Z)
Latitude
-0.00006°
Longitude
108.96316°
Altitude
574.495 km
Speed
7.574 km/s
True Right ascension
01h 06m 36s
True Declination
0° 00' 00"
Sunlit
Object was in daylight at epoch
Visualization orbit readout
Latitude
Unknown
Longitude
Unknown
Altitude
Unknown
Speed
Unknown
Apparent Right ascension
Unknown
Apparent Declination
Unknown
Sunlit
N/A
Visualization observer readout
Local Sidereal Time
10:20:21
Azimuth
Unknown
Elevation
Unknown
Doppler factor
Unknown
Orbital elements
Apogee altitude
571.99 km
Perigee altitude
567.977 km
Semi-major axis
6,948.12 km
Eccentricity
0.00029
Inclination
70.0021°
RAAN
16.6514°
Arg. of periapsis
269.0879°
True anomaly
91.02799°
Mean anomaly
90.9949°
Eccentric anomaly
91.01144°
Mean motion
3.7475 °/min
Orbital period
96.06 mins
BSTAR
0.00028061
Loading maneuver chart data...
Computing Atmospheric mass density...
Loading historical data...
Loading historical data...
Loading historical data...
Loading historical data...
Loading historical data...
Loading historical data...
Loading historical data...

Documentation

Showing up to 5 results
|